Flag for U.S.A. Weather past 2 weeks in St. Petersburg, Florida, U.S.A.

Now
79 °F

Passing clouds.


Feels Like: 83 °F
Forecast: 79 / 85 °F
Wind: 14 mph from South

Location: Whitted Airport

Current Time: Aug 1, 2015 at 6:51:49 AM

Latest Report: Aug 1, 2015 at 5:53 AM


Visibility: 10 mi

Pressure: 29.92 "Hg

Humidity: 88%

Dew point: 75 °F

Location of St. PetersburgLocation

Historic Weather in St. Petersburg — Graph

°F

St. Petersburg temperature yesterday

Maximum temperature yesterday: 86 °F (at 4:53 PM)
Minimum temperature yesterday: 77 °F (at 1:53 PM)
Average temperature yesterday: 80 °F

Past Weeks' High & Low Weather Summary

 TemperatureHumidityPressure
High88 °F (Jul 22, 11:53 AM)97% (Jul 25, 10:53 AM)30.06 "Hg (Jul 25, 10:53 AM)
Low75 °F (Jul 24, 2:04 PM)63% (Jul 22, 11:53 AM)29.83 "Hg (Jul 26, 3:53 AM)
Average82 °F81%29.96 "Hg
* Reported Jul 17 5:53 AM — Aug 1 5:53 AM, St. Petersburg, Weather by CustomWeather, © 2015

Note: Actual official high and low records may vary slightly from our data, if they occured in-between our weather recording intervals... More about our weather records

Advertising

St. Petersburg weather history for previous 24 hours

 ConditionsComfort  
Time TempWeatherWind HumidityBarometerVisibility
5:53 AM
Sat, Aug 1
79 °FPassing clouds.14 mph88%29.92 "Hg10 mi
4:53 AM79 °FClear.13 mph88%29.93 "Hg10 mi
3:53 AM79 °FOvercast.14 mph88%29.94 "Hg10 mi
2:53 AM82 °FPartly cloudy.7 mph77%29.95 "Hg10 mi
1:53 AM81 °FPassing clouds.6 mph85%29.96 "Hg10 mi
12:53 AM81 °FPartly cloudy.8 mph79%29.97 "Hg10 mi
11:53 PM
Fri, Jul 31
81 °FClear.8 mph82%29.97 "Hg10 mi
10:53 PM80 °FPassing clouds.6 mph85%29.98 "Hg10 mi
9:53 PM79 °FPartly cloudy.6 mph84%29.98 "Hg10 mi
8:53 PM79 °FScattered clouds.5 mph82%29.96 "Hg10 mi
7:53 PM78 °FLight rain. Partly sunny.9 mph87%29.95 "Hg8 mi
6:59 PM78 °FHeavy rain. Fog.15 mph90%29.94 "Hg2 mi
5:53 PM77 °FLight rain. Fog.5 mph94%29.95 "Hg4 mi
4:53 PM86 °FSunny.15 mph65%29.93 "Hg10 mi
3:53 PM85 °FSunny.14 mph63%29.95 "Hg10 mi
2:53 PM83 °FPartly sunny.10 mph77%29.97 "Hg10 mi
1:53 PM77 °FLight rain. Cloudy.10 mph79%29.99 "Hg6 mi
12:53 PM81 °FMore clouds than sun.25 mph79%30.00 "Hg10 mi
11:53 AM78 °FRain. More clouds than sun.16 mph74%30.00 "Hg5 mi
10:53 AM81 °FPassing clouds.3 mph79%29.99 "Hg10 mi
9:53 AM79 °FLight rain. More clouds than sun.9 mph79%29.99 "Hg8 mi
8:53 AM84 °FBroken clouds.8 mph74%29.98 "Hg10 mi
7:53 AM81 °FSunny.5 mph85%29.96 "Hg10 mi
6:53 AM80 °FClear.3 mph85%29.95 "Hg10 mi
Weather by CustomWeather, © 2015

See weather overviewHow to use our weather pages